M0CJS Weather Reports


Display with metric or nautical units.
time (UTC)temp
F
wind
direction
speed
MPH
gust
MPH
rain 1hr
in
rain 24hr
in
rain mn
in
humidity
%
barometer
mb
20260504050515 49 45 5.0 9.0 0.00 0.00 0.00 95 1015.2
20260504045536 49 45 5.0 9.0 0.00 0.00 0.00 95 1015.1
20260504044515 49 45 3.0 6.0 0.00 0.00 0.00 95 1015.1
20260504043515 50 45 3.0 5.0 0.00 0.00 0.00 95 1015.1
20260504042535 50 45 3.0 4.0 0.00 0.00 0.00 95 1015.1
20260504041535 50 45 3.0 4.0 0.00 0.00 0.00 95 1015.1
20260504040515 50 45 2.0 5.0 0.00 0.00 0.00 95 1015.1
20260504035515 50 45 2.0 7.0 0.00 0.00 0.00 95 1014.9
20260504034515 50 45 3.0 5.0 0.00 0.00 0.00 95 1014.8
20260504033537 50 45 3.0 7.0 0.00 0.00 0.00 94 1014.8
20260504032517 50 45 4.0 9.0 0.00 0.00 0.00 94 1014.8
20260504031517 50 45 3.0 6.0 0.00 0.00 0.00 94 1014.9
20260504030517 49 45 4.0 9.0 0.00 0.00 0.00 94 1014.8
20260504025517 49 45 3.0 5.0 0.00 0.00 0.00 94 1014.7
20260504024557 50 45 3.0 5.0 0.00 0.00 0.00 93 1014.7
20260504023517 50 45 2.0 4.0 0.00 0.00 0.00 93 1014.7
20260504022517 49 68 3.0 6.0 0.00 0.00 0.00 93 1014.6
20260504021517 49 45 3.0 5.0 0.00 0.00 0.00 93 1014.5
20260504020517 49 45 3.0 9.0 0.00 0.00 0.00 93 1014.6
20260504015517 49 45 2.0 4.0 0.00 0.00 0.00 93 1014.6
20260504014517 50 45 2.0 6.0 0.00 0.00 0.00 93 1014.6
20260504013517 50 45 2.0 4.0 0.00 0.00 0.00 93 1014.7
20260504012517 50 45 1.0 3.0 0.00 0.00 0.00 93 1014.8
20260504011517 50 45 2.0 5.0 0.00 0.00 0.00 93 1014.7
20260504010517 50 45 3.0 5.0 0.00 0.00 0.00 93 1014.7
20260504005517 50 45 2.0 3.0 0.00 0.00 0.00 93 1014.6
20260504004517 50 45 2.0 6.0 0.00 0.00 0.00 92 1014.5
20260504003537 50 45 2.0 5.0 0.00 0.00 0.00 92 1014.4
20260504002517 50 45 4.0 9.0 0.00 0.00 0.00 92 1014.4
20260504001537 50 45 2.0 6.0 0.00 0.00 0.00 92 1014.4
20260504000517 50 45 3.0 7.0 0.00 0.00 0.00 92 1014.3
20260503235517 50 45 4.0 7.0 0.00 0.01 0.00 92 1014.4
20260503234517 51 45 4.0 9.0 0.00 0.01 0.00 92 1014.3
20260503233516 51 45 5.0 9.0 0.00 0.01 0.00 92 1014.3
20260503232516 51 45 4.0 7.0 0.00 0.01 0.00 92 1014.4
20260503231517 51 45 4.0 7.0 0.00 0.01 0.00 92 1014.3
20260503230517 51 45 5.0 10.0 0.00 0.01 0.00 92 1014.3
20260503225517 51 45 4.0 9.0 0.00 0.06 0.01 92 1014.1
20260503224517 51 45 4.0 7.0 0.00 0.06 0.01 92 1014.1
20260503223517 52 45 5.0 10.0 0.00 0.06 0.01 92 1014.0
20260503222517 52 45 4.0 6.0 0.00 0.06 0.01 92 1014.1
20260503221517 52 45 2.0 5.0 0.00 0.06 0.01 92 1014.0
20260503220517 52 45 3.0 6.0 0.00 0.06 0.01 92 1014.0
20260503215517 52 45 3.0 6.0 0.00 0.06 0.01 93 1013.9
20260503214517 52 45 3.0 8.0 0.00 0.06 0.01 92 1013.8
20260503213537 52 45 4.0 9.0 0.00 0.06 0.01 92 1013.6
20260503212516 52 45 4.0 9.0 0.00 0.06 0.01 93 1013.4
20260503211517 52 45 5.0 10.0 0.00 0.06 0.01 93 1013.4
20260503210516 52 45 3.0 7.0 0.00 0.06 0.01 93 1013.2
20260503205516 53 45 4.0 7.0 0.00 0.06 0.01 93 1013.2
20260503204516 53 45 4.0 7.0 0.00 0.06 0.01 93 1013.2
20260503203517 53 45 3.0 6.0 0.00 0.06 0.01 93 1013.1
20260503202516 53 45 2.0 5.0 0.00 0.06 0.01 93 1013.0
20260503201516 53 45 3.0 5.0 0.00 0.06 0.01 93 1012.9
20260503200516 53 45 3.0 7.0 0.00 0.06 0.01 93 1012.7
20260503195516 53 45 3.0 10.0 0.00 0.09 0.01 93 1012.6
20260503194516 53 45 3.0 5.0 0.00 0.09 0.01 92 1012.5
20260503193516 53 23 2.0 3.0 0.00 0.09 0.01 92 1012.4
20260503192517 53 45 3.0 6.0 0.00 0.09 0.01 92 1012.2
20260503191516 53 45 3.0 5.0 0.00 0.09 0.01 91 1012.1
20260503190516 54 45 2.0 5.0 0.00 0.09 0.01 91 1012.1
20260503185516 54 23 2.0 5.0 0.00 0.27 0.01 90 1011.9
20260503184536 55 45 4.0 8.0 0.00 0.27 0.01 89 1011.8
20260503183516 55 45 5.0 10.0 0.00 0.27 0.01 89 1011.6
20260503182516 56 45 6.0 12.0 0.00 0.27 0.01 88 1011.6
20260503181516 57 23 5.0 10.0 0.00 0.27 0.01 88 1011.5
20260503180516 57 0 2.0 4.0 0.00 0.27 0.01 87 1011.5
20260503175536 57 23 2.0 6.0 0.00 0.28 0.01 87 1011.6
20260503174516 57 0 2.0 5.0 0.00 0.28 0.01 87 1011.5
20260503173516 57 23 3.0 6.0 0.00 0.28 0.01 86 1011.5
20260503172516 57 23 3.0 6.0 0.00 0.28 0.01 85 1011.4
20260503171516 58 293 2.0 4.0 0.00 0.28 0.01 85 1011.4
20260503170516 58 315 3.0 7.0 0.00 0.28 0.01 84 1011.3
20260503150516 59 0 2.0 4.0 0.00 0.28 0.01 83 1011.1
20260503130516 59 293 3.0 7.0 0.00 0.28 0.01 81 1011.3
20260503110515 57 293 3.0 7.0 0.00 0.28 0.01 87 1010.9
20260503081557 53 293 4.0 8.0 0.00 0.28 0.01 95 1010.5
20260503080517 53 293 3.0 6.0 0.00 0.28 0.01 95 1010.5
20260503072517 53 270 2.0 5.0 0.00 0.28 0.01 96 1010.5
20260503071537 53 248 3.0 7.0 0.00 0.28 0.01 96 1010.5
20260503070517 53 248 2.0 5.0 0.00 0.28 0.01 97 1010.4